Home   Weather   Amsterdam   Past weeks
Flag for Netherlands

Past Weather in Amsterdam, Netherlands — August 2019

Now
73 °F

Passing clouds.


Feels Like: 77 °F
Forecast: 66 / 54 °F
Wind: 12 mph from Southeast

Location: Amsterdam Schiphol Airport

Current Time: Sep 22, 2019 at 2:22:31 pm

Latest Report: Sep 22, 2019 at 1:55 pm


Visibility: N/A

Pressure: 29.71 "Hg

Humidity: 53%

Dew Point: 55 °F

Location of AmsterdamLocation

August 2019 Weather in Amsterdam — Graph

°F

High & Low Weather Summary for August 2019

 TemperatureHumidityPressure
High90 °F (Aug 27, 3:55 pm)100% (Aug 4, 12:55 am)30.36 "Hg (Aug 4, 12:55 am)
Low50 °F (Aug 21, 5:55 am)29% (Aug 25, 2:25 pm)29.59 "Hg (Aug 9, 8:25 pm)
Average66 °F75%29.95 "Hg
* Reported Aug 1 12:25 am — Aug 31 11:55 pm, Amsterdam. Weather by CustomWeather, © 2019

Note: Actual official high and low records may vary slightly from our data, if they occured in-between our weather recording intervals... More about our weather records

Advertising

Amsterdam Weather History for August 1, 2019

Scroll right to see more
 ConditionsComfort  
Time TempWeatherWind HumidityBarometerVisibility
12:25 am
Thu, Aug 1
61 °FClear.10 mph77%29.98 "Hg10 mi
12:55 am61 °FClear.10 mph77%29.98 "Hg10 mi
1:25 am61 °FSprinkles. Passing clouds.9 mph77%29.98 "HgN/A
1:55 am61 °FSprinkles. Passing clouds.10 mph77%29.98 "HgN/A
2:25 am61 °FSprinkles. Passing clouds.9 mph88%29.98 "Hg6 mi
2:55 am61 °FSprinkles. Passing clouds.8 mph88%29.98 "HgN/A
3:25 am61 °FSprinkles. Passing clouds.9 mph88%29.98 "HgN/A
3:55 am61 °FSprinkles. Passing clouds.9 mph88%29.95 "HgN/A
4:25 am61 °FPassing clouds.10 mph88%29.95 "HgN/A
5:25 am61 °FPassing clouds.9 mph88%29.95 "HgN/A
5:55 am61 °FPassing clouds.10 mph88%29.95 "HgN/A
6:25 am61 °FScattered clouds.10 mph94%29.95 "HgN/A
6:55 am61 °FScattered clouds.8 mph94%29.95 "HgN/A
7:25 am63 °FSprinkles. Passing clouds.9 mph88%29.95 "HgN/A
7:55 am63 °FRain showers. Passing clouds.12 mph94%29.95 "Hg4 mi
8:25 am63 °FRain showers. Broken clouds.12 mph94%29.95 "Hg4 mi
8:55 am64 °FSprinkles. Broken clouds.13 mph88%29.95 "HgN/A
9:25 am66 °FRain showers. Partly sunny.13 mph88%29.95 "Hg4 mi
9:55 am64 °FSprinkles. Scattered clouds.12 mph88%29.95 "Hg5 mi
10:25 am66 °FScattered showers. Scattered clouds.10 mph88%29.95 "HgN/A
10:55 am66 °FScattered clouds.13 mph83%29.98 "HgN/A
11:25 am70 °FScattered showers. Scattered clouds.14 mph78%29.98 "HgN/A
11:55 am68 °FScattered clouds.14 mph78%29.98 "HgN/A
12:25 pm68 °FScattered clouds.17 mph73%29.98 "HgN/A
12:55 pm68 °FScattered clouds.20 mph73%29.98 "HgN/A
1:25 pm70 °FScattered clouds.17 mph73%29.98 "HgN/A
1:55 pm70 °FScattered clouds.16 mph73%29.98 "HgN/A
2:55 pm70 °FScattered clouds.17 mph73%29.98 "HgN/A
3:25 pm70 °FBroken clouds.16 mph73%30.01 "HgN/A
3:55 pm68 °FScattered clouds.17 mph73%29.98 "HgN/A
4:25 pm70 °FScattered clouds.17 mph69%29.98 "HgN/A
4:55 pm68 °FScattered clouds.17 mph73%30.01 "HgN/A
5:25 pm68 °FScattered clouds.17 mph73%30.01 "HgN/A
5:55 pm68 °FScattered clouds.17 mph73%29.98 "HgN/A
6:25 pm68 °FScattered clouds.14 mph73%29.98 "HgN/A
6:55 pm68 °FScattered clouds.16 mph73%29.98 "HgN/A
7:25 pm68 °FScattered clouds.15 mph73%29.98 "HgN/A
7:55 pm66 °FScattered clouds.15 mph78%29.98 "HgN/A
8:25 pm66 °FScattered clouds.15 mph78%29.98 "HgN/A
8:55 pm66 °FPassing clouds.15 mph78%29.98 "HgN/A
9:25 pm66 °FPassing clouds.12 mph78%29.98 "HgN/A
9:55 pm64 °FPassing clouds.12 mph83%29.98 "HgN/A
10:25 pm64 °FPassing clouds.9 mph83%30.01 "HgN/A
10:55 pm64 °FPassing clouds.10 mph83%30.01 "HgN/A
11:25 pm63 °FPassing clouds.8 mph88%30.01 "HgN/A
11:55 pm63 °FPassing clouds.9 mph88%30.01 "HgN/A
Weather by CustomWeather, © 2019

See weather overview